[Iaude] MPEC V17: 2023 VE [a=1.82,e=0.53,i=7.1,H=27.4]
    mpec at marsden.cfa.harvard.edu 
    mpec at marsden.cfa.harvard.edu
       
    Fri Nov  3 22:47:03 EDT 2023
    
    
  
M.P.E.C. 2023-V17                              Issued 2023 November 4, 02:45 UT
     The Minor Planet Electronic Circulars contain information on unusual
         minor planets, routine data on comets and natural satellites,
         and occasional editorial announcements.  They are published
    on behalf of Division F of the International Astronomical Union by the
          Minor Planet Center, Smithsonian Astrophysical Observatory,
                          Cambridge, MA 02138, U.S.A.
			  
             Prepared using the Tamkin Foundation Computer Network
                              MPC at CFA.HARVARD.EDU
            URL https://www.minorplanetcenter.net/    ISSN 1523-6714
                                    2023 VE                                     
Observations:
     K23V00E  C2023 10 31.45169401 29 36.205+22 26 01.12         21.85GVEV017F51
     K23V00E  C2023 10 31.46078601 29 38.304+22 25 32.46         21.69GVEV017F51
     K23V00E  C2023 10 31.46980401 29 40.401+22 25 04.41         21.65GVEV017F51
     K23V00E* C2023 11 03.29057201 53 51.559+18 18 49.42         20.26wXEV017F52
     K23V00E  C2023 11 03.30367001 54 01.290+18 16 53.61         20.29wXEV017F52
     K23V00E  C2023 11 03.31671801 54 10.946+18 14 57.05         20.39wXEV017F52
     K23V00E  C2023 11 03.39381201 54 53.605+18 01 16.27         20.0 GVEV017H01
     K23V00E  C2023 11 03.39723901 54 56.348+18 00 41.87         19.7 GVEV017H01
     K23V00E  C2023 11 03.41053501 55 07.140+17 58 27.04         20.0 GVEV017H01
     K23V00E  C2023 11 03.41560501 55 11.292+17 57 35.19         20.4 GVEV017H01
     K23V00E  C2023 11 03.44540401 55 47.457+17 54 30.87               VEV017F51
     K23V00E  C2023 11 03.44586801 55 47.883+17 54 25.49         19.88GVEV017F51
     K23V00E KC2023 11 03.77880002 01 37.130+16 50 21.23         19.8 GVEV017J95
     K23V00E KC2023 11 03.78355202 01 42.098+16 49 25.61         19.3 GVEV017J95
     K23V00E KC2023 11 03.78866102 01 47.371+16 48 26.24         19.6 GVEV017J95
     K23V00E IC2023 11 04.01766202 05 44.49 +16 00 12.9          19.0 GVEV017L01
     K23V00E pC2023 11 04.01970402 05 46.74 +15 59 45.0          19.4 GVEV017L01
     K23V00E KC2023 11 04.02234202 05 49.67 +15 59 08.1          19.4 GVEV017L01
Observer details:
F51 Pan-STARRS 1, Haleakala.  Observers J. Bulger, T. Lowe, P. Minguez, A.
    Schultz, I. Smith.  Measurers K. Chambers, T. de Boer, J. Fairlamb, H.
    Gao, M. Huber, C.-C. Lin, E. Magnier, Y. Ramanjooloo, R. Wainscoat, R.
    Weryk.  1.8-m Ritchey-Chretien + CCD.
F52 Pan-STARRS 2, Haleakala.  Observers J. Bulger, T. Lowe, P. Minguez, A.
    Schultz, I. Smith.  Measurers K. Chambers, T. de Boer, J. Fairlamb, H.
    Gao, M. Huber, C.-C. Lin, E. Magnier, Y. Ramanjooloo, R. Wainscoat, R.
    Weryk.  1.8-m Ritchey-Chretien + CCD.
H01 Magdalena Ridge Observatory, Socorro.  Observers W. H. Ryan, E. V. Ryan.
    Measurer W. H. Ryan.  2.4-m f/8.9 Ritchey-Chretien + CCD.
J95 Great Shefford.  Observer P. Birtwhistle.  0.41-m f/6.3 Schmidt-Cassegrain
    + CCD.
L01 Visnjan Observatory, Tican.  Observers K. Korlevic, L. Poropat.  Measurer
    K. Korlevic.  1.0-m f/2.9 reflector + CCD.
Orbital elements:
2023 VE                                                  Earth MOID = 0.0069 AU
Epoch 2023 Sept. 13.0 TT = JDT 2460200.5                Veres                   
M 322.70818              (2000.0)            P               Q                  
n   0.40066780     Peri.  235.32199     -0.11273031     -0.99023511             
a   1.8222715      Node   221.39293     +0.94739129     -0.08223298             
e   0.5277010      Incl.    7.12501     +0.29956906     -0.11257070             
P   2.46           H   27.49          G   0.15           U   7                  
Residuals in seconds of arc
231031 F51  0.3-  0.0     231103 H01  0.3+  0.1+    231103 J95  0.1-  0.0
231031 F51  0.0   0.3-    231103 H01  0.2+  0.2+    231103 J95  0.5+  0.4-
231031 F51  0.2+  0.1+    231103 H01  0.3+  0.2+    231103 J95  0.0   0.2-
231103 F52  0.6-  0.3+    231103 H01  0.2+  0.1+    231104 L01  0.3-  0.8-
231103 F52  0.4-  0.2+    231103 F51 (0.9-  0.8+)   231104 L01  0.6-  0.0
231103 F52  0.5-  0.2+    231103 F51  0.0   0.1+    231104 L01  0.7-  0.3+
Ephemeris:
2023 VE                  a,e,i = 1.82, 0.53, 7                   q = 0.8607
Date    TT    R. A. (2000) Decl.     Delta      r    Elong.  Phase     V
2023 10 05    01 05 58.1 +25 01 44   0.2499  1.2362   158.5    17.2    25.8
...
2023 10 20    01 09 29.2 +25 27 50   0.1295  1.1206   163.3    14.8    24.1
...
2023 10 28    01 18 16.7 +24 13 56   0.07119 1.0623   163.8    15.1    22.7
...
2023 11 03    01 49 48.3 +19 00 34   0.02941 1.0211   169.5    10.2    20.5
2023 11 04    02 05 32.1 +16 07 45   0.02274 1.0145   173.0     6.8    19.8
2023 11 05    02 32 48.0 +10 46 10   0.01636 1.0080   175.2     4.8    19.0
...
2023 11 11    11 48 01.5 -35 01 59   0.02861 0.9708    46.6   132.2    25.6
...
2023 11 19    12 35 57.5 -30 17 50   0.08393 0.9276    41.8   134.7    28.2
...
2023 12 04    13 00 31.3 -28 37 17   0.1920  0.8727    49.3   121.1    28.5
M. P. C. Staff               (C) Copyright 2023 MPC           M.P.E.C. 2023-V17
    
    
More information about the Iaude
mailing list